• In Belarus
  • List of Countries
  • For 7 days
  • Water Temperature
  • Satellite Maps
  • Weather Map
  • Weather Widgets
  • user-avatar
    Login

    Hourly Weather Castelo Branco

    Today, 18 October, Thursday

    Time Temperature Precipitation Wind Pressure Humidity
    00:00 +15°C° 1.3 mm 2 mps 726 mmHg 87%
    01:00 +15°C° 2 mm 2 mps 725 mmHg 88%
    02:00 +14°C° 2 mm 2 mps 725 mmHg 89%
    03:00 +14°C° 2 mm 2 mps 725 mmHg 90%
    04:00 +14°C° 1.3 mm 2 mps 724 mmHg 90%
    05:00 +14°C° 1.3 mm 2 mps 724 mmHg 90%
    06:00 +14°C° 1.3 mm 2 mps 724 mmHg 90%
    07:00 +14°C° 0.2 mm 3 mps 724 mmHg 85%
    08:00 +16°C° 0.2 mm 3 mps 724 mmHg 80%
    09:00 +17°C° 0.2 mm 4 mps 725 mmHg 76%
    10:00 +19°C° 0 mm 4 mps 725 mmHg 66%
    11:00 +21°C° 0 mm 4 mps 725 mmHg 57%
    12:00 +22°C° 0 mm 5 mps 725 mmHg 48%
    13:00 +23°C° 0 mm 4 mps 725 mmHg 45%
    14:00 +25°C° 0 mm 4 mps 725 mmHg 42%
    15:00 +25°C° 0 mm 4 mps 725 mmHg 39%
    16:00 +24°C° 0 mm 3 mps 725 mmHg 43%
    17:00 +23°C° 0 mm 2 mps 725 mmHg 47%
    18:00 +20°C° 0 mm 2 mps 725 mmHg 51%
    19:00 +19°C° 0 mm 2 mps 725 mmHg 54%
    20:00 +19°C° 0 mm 2 mps 725 mmHg 56%
    21:00 +18°C° 0 mm 2 mps 726 mmHg 59%
    22:00 +17°C° 0 mm 2 mps 726 mmHg 61%
    23:00 +17°C° 0 mm 3 mps 726 mmHg 63%

    Tomorrow, 19 October, Friday

    Time Temperature Precipitation Wind Pressure Humidity
    00:00 +17°C° 0 mm 3 mps 726 mmHg 65%
    01:00 +17°C° 0 mm 3 mps 726 mmHg 68%
    02:00 +16°C° 0 mm 3 mps 726 mmHg 71%
    03:00 +16°C° 0 mm 3 mps 725 mmHg 74%
    04:00 +16°C° 0.3 mm 3 mps 725 mmHg 75%
    05:00 +16°C° 0.3 mm 3 mps 725 mmHg 77%
    06:00 +16°C° 0.3 mm 3 mps 725 mmHg 78%
    07:00 +17°C° 0 mm 4 mps 725 mmHg 74%
    08:00 +18°C° 0 mm 4 mps 726 mmHg 71%
    09:00 +18°C° 0 mm 4 mps 726 mmHg 67%
    10:00 +19°C° 0 mm 5 mps 727 mmHg 64%
    11:00 +21°C° 0 mm 5 mps 727 mmHg 60%
    12:00 +22°C° 0 mm 5 mps 728 mmHg 56%
    13:00 +22°C° 0 mm 5 mps 728 mmHg 54%
    14:00 +22°C° 0 mm 4 mps 728 mmHg 52%
    15:00 +23°C° 0 mm 4 mps 728 mmHg 50%
    16:00 +21°C° 0 mm 3 mps 728 mmHg 55%
    17:00 +20°C° 0 mm 2 mps 728 mmHg 60%
    18:00 +19°C° 0 mm 1 mps 728 mmHg 65%
    19:00 +19°C° 0 mm 1 mps 728 mmHg 67%
    20:00 +16°C° 0 mm 0 mps 729 mmHg 69%
    21:00 +16°C° 0 mm 0 mps 729 mmHg 72%
    22:00 +18°C° 0 mm 1 mps 730 mmHg 72%
    23:00 +16°C° 0 mm 1 mps 730 mmHg 73%

    Day after tomorrow, 20 October, Saturday

    Time Temperature Precipitation Wind Pressure Humidity
    00:00 +16°C° 0 mm 1 mps 730 mmHg 74%
    01:00 +16°C° 0 mm 2 mps 730 mmHg 76%
    02:00 +16°C° 0 mm 2 mps 730 mmHg 77%
    03:00 +16°C° 0 mm 2 mps 730 mmHg 79%
    04:00 +15°C° 0 mm 2 mps 730 mmHg 80%
    05:00 +15°C° 0 mm 2 mps 730 mmHg 81%
    06:00 +15°C° 0 mm 2 mps 730 mmHg 82%
    07:00 +16°C° 0 mm 3 mps 730 mmHg 76%
    08:00 +17°C° 0 mm 4 mps 731 mmHg 71%
    09:00 +19°C° 0 mm 4 mps 731 mmHg 65%
    10:00 +20°C° 0 mm 5 mps 731 mmHg 59%
    11:00 +22°C° 0 mm 5 mps 731 mmHg 53%
    12:00 +23°C° 0 mm 5 mps 731 mmHg 47%
    13:00 +23°C° 0 mm 5 mps 730 mmHg 47%
    14:00 +23°C° 0 mm 5 mps 730 mmHg 47%
    15:00 +25°C° 0 mm 5 mps 730 mmHg 47%
    16:00 +22°C° 0.2 mm 5 mps 730 mmHg 53%
    17:00 +21°C° 0.2 mm 4 mps 729 mmHg 59%
    18:00 +19°C° 0.2 mm 3 mps 729 mmHg 65%
    19:00 +19°C° 0.4 mm 2 mps 730 mmHg 70%
    20:00 +18°C° 0.4 mm 2 mps 730 mmHg 75%
    21:00 +18°C° 0.4 mm 1 mps 731 mmHg 80%
    22:00 +17°C° 0.3 mm 2 mps 731 mmHg 80%
    23:00 +17°C° 0.3 mm 2 mps 731 mmHg 81%

    21 October, Sunday

    Time Temperature Precipitation Wind Pressure Humidity
    00:00 +17°C° 0.3 mm 3 mps 731 mmHg 81%
    01:00 +17°C° 0 mm 3 mps 731 mmHg 82%
    02:00 +17°C° 0 mm 3 mps 731 mmHg 82%
    03:00 +17°C° 0 mm 3 mps 731 mmHg 83%
    04:00 +16°C° 0.3 mm 3 mps 731 mmHg 85%
    05:00 +16°C° 0.3 mm 3 mps 731 mmHg 86%
    06:00 +16°C° 0.3 mm 2 mps 731 mmHg 87%
    07:00 +17°C° 0.4 mm 3 mps 731 mmHg 83%
    08:00 +18°C° 0.4 mm 3 mps 732 mmHg 78%
    09:00 +18°C° 0.4 mm 3 mps 732 mmHg 74%
    10:00 +20°C° 0.6 mm 3 mps 732 mmHg 69%
    11:00 +21°C° 0.6 mm 4 mps 733 mmHg 64%
    12:00 +22°C° 0.6 mm 4 mps 733 mmHg 59%
    13:00 +23°C° 2.2 mm 4 mps 733 mmHg 59%
    14:00 +24°C° 2.2 mm 3 mps 732 mmHg 59%
    15:00 +24°C° 2.2 mm 3 mps 732 mmHg 59%
    16:00 +22°C° 1.2 mm 3 mps 732 mmHg 65%
    17:00 +20°C° 1.2 mm 2 mps 732 mmHg 71%
    18:00 +20°C° 1.2 mm 1 mps 732 mmHg 76%
    19:00 +19°C° 0.7 mm 1 mps 732 mmHg 79%
    20:00 +19°C° 0.7 mm 1 mps 733 mmHg 82%
    21:00 +18°C° 0.7 mm 1 mps 733 mmHg 85%
    22:00 +18°C° 0.1 mm 1 mps 733 mmHg 86%
    23:00 +18°C° 0.1 mm 1 mps 733 mmHg 87%

    22 October, Monday

    Time Temperature Precipitation Wind Pressure Humidity
    00:00 +16°C° 0.1 mm 1 mps 733 mmHg 88%
    01:00 +16°C° 0 mm 1 mps 733 mmHg 88%
    02:00 +16°C° 0 mm 1 mps 733 mmHg 89%
    03:00 +16°C° 0 mm 1 mps 733 mmHg 90%
    04:00 +15°C° 0 mm 1 mps 733 mmHg 90%
    05:00 +15°C° 0 mm 1 mps 733 mmHg 91%
    06:00 +15°C° 0 mm 1 mps 733 mmHg 91%
    07:00 +16°C° 0 mm 2 mps 734 mmHg 85%
    08:00 +18°C° 0 mm 2 mps 734 mmHg 80%
    09:00 +19°C° 0 mm 2 mps 734 mmHg 74%
    10:00 +21°C° 0 mm 2 mps 734 mmHg 68%
    11:00 +23°C° 0 mm 2 mps 734 mmHg 61%
    12:00 +25°C° 0 mm 3 mps 734 mmHg 54%
    13:00 +25°C° 0.1 mm 2 mps 734 mmHg 52%
    14:00 +26°C° 0.1 mm 2 mps 733 mmHg 49%
    15:00 +26°C° 0.1 mm 2 mps 733 mmHg 47%
    16:00 +24°C° 0.1 mm 2 mps 733 mmHg 54%
    17:00 +23°C° 0.1 mm 1 mps 733 mmHg 60%
    18:00 +21°C° 0.1 mm 1 mps 733 mmHg 67%
    19:00 +20°C° 0.1 mm 1 mps 733 mmHg 69%
    20:00 +20°C° 0.1 mm 1 mps 733 mmHg 71%
    21:00 +19°C° 0.1 mm 1 mps 733 mmHg 73%
    22:00 +18°C° 0 mm 2 mps 733 mmHg 74%
    23:00 +18°C° 0 mm 2 mps 733 mmHg 74%

    23 October, Tuesday

    Time Temperature Precipitation Wind Pressure Humidity
    00:00 +17°C° 0 mm 2 mps 733 mmHg 75%
    01:00 +17°C° 0 mm 2 mps 732 mmHg 76%
    02:00 +17°C° 0 mm 2 mps 732 mmHg 76%
    03:00 +16°C° 0 mm 2 mps 732 mmHg 76%
    04:00 +16°C° 0 mm 2 mps 732 mmHg 77%
    05:00 +16°C° 0 mm 2 mps 732 mmHg 78%
    06:00 +16°C° 0 mm 2 mps 732 mmHg 79%
    07:00 +17°C° 0 mm 3 mps 732 mmHg 74%
    08:00 +18°C° 0 mm 3 mps 732 mmHg 69%
    09:00 +19°C° 0 mm 3 mps 732 mmHg 64%
    10:00 +20°C° 0 mm 3 mps 732 mmHg 59%
    11:00 +22°C° 0 mm 4 mps 732 mmHg 54%
    12:00 +23°C° 0 mm 4 mps 732 mmHg 49%
    13:00 +25°C° 0 mm 3 mps 732 mmHg 46%
    14:00 +25°C° 0 mm 3 mps 731 mmHg 44%
    15:00 +26°C° 0 mm 3 mps 730 mmHg 41%
    16:00 +24°C° 0 mm 3 mps 730 mmHg 46%
    17:00 +23°C° 0 mm 2 mps 730 mmHg 50%
    18:00 +21°C° 0 mm 1 mps 730 mmHg 55%
    19:00 +19°C° 0 mm 2 mps 730 mmHg 56%
    20:00 +19°C° 0 mm 2 mps 730 mmHg 56%
    21:00 +19°C° 0 mm 2 mps 730 mmHg 57%
    22:00 +18°C° 0 mm 2 mps 730 mmHg 57%
    23:00 +18°C° 0 mm 2 mps 730 mmHg 57%
    Show more